Change the Weather History Date:

Friday, October 7, 2011

  Actual Average Record
Temperature  
Mean Temperature 34 °F 48 °F  
Max Temperature 40 °F 66 °F 81 °F (1964)
Min Temperature 27 °F 30 °F 13 °F (1992)
Degree Days  
Heating Degree Days 31 17  
Month to date heating degree days 110 110  
Since 1 July heating degree days 248 426  
Cooling Degree Days 0 0  
Month to date cooling degree days 0 0  
Year to date cooling degree days 259 218  
Moisture  
Dew Point 31 °F    
Average Humidity 81    
Maximum Humidity 92    
Minimum Humidity 70    
Precipitation  
Precipitation T in 0.03 in 0.43 in (1981)
Month to date precipitation 1.13 0.23  
Year to date precipitation 11.39 7.70  
Snow  
Snow T in 0.10 in 3.00 in (1975)
Month to date snowfall 2.6 0.5  
Since 1 July snowfall 2.6 0.9  
Since 1 September snowfall 2.6 0.9  
Snow Depth 0.00 in    
Sea Level Pressure  
Sea Level Pressure 30.09 in    
Wind  
Wind Speed 3 mph (WNW)    
Max Wind Speed 8 mph    
Max Gust Speed 10 mph    
Visibility 10 miles    
Events Rain    
T = Trace of Precipitation, MM = Missing Value Source: NWS Daily Summary

Daily Weather History Graph

Daily Weather History Graph

Search for Another Location

Airport or City:

Trip Planner

Search our weather history database for the weather conditions in past years. The results will help you decide how hot, cold, wet, or windy it might be!

Date:

Astronomy

Oct. 07, 2011 Rise Set
Actual Time 6:41 AM PDT 6:12 PM PDT
Civil Twilight 6:14 AM PDT 6:39 PM PDT
Nautical Twilight 5:43 AM PDT 7:10 PM PDT
Astronomical Twilight 5:12 AM PDT 7:41 PM PDT
Moon 3:56 PM PDT (10/7) 2:35 AM PDT (10/7)
Length of Visible Light 12h 25m
Length of Day
11h 31m
Waxing Gibbous, 84% of the Moon is Illuminated
Oct 7
Waxing Gibbous
Oct 11
Full
Oct 19
Last Quarter
Oct 26
New
Nov 2
First Quarter

Hourly Weather History & Observations

Time (PDT) Temp. Windchill Dew Point Humidity Pressure Visibility Wind Dir Wind Speed Gust Speed Precip Events Conditions
12:53 AM 28.0 °F - 25.0 °F 88% 29.98 in 10.0 mi Calm Calm - N/A   Clear
1:53 AM 28.9 °F 25.2 °F 26.1 °F 89% 30.00 in 10.0 mi SE 3.5 mph - N/A   Overcast
2:53 AM 30.0 °F - 28.0 °F 92% 29.99 in 10.0 mi Calm Calm - N/A   Overcast
3:53 AM 32.0 °F - 27.0 °F 82% 30.00 in 10.0 mi Calm Calm - N/A   Overcast
4:53 AM 30.9 °F 25.2 °F 27.0 °F 85% 29.99 in 10.0 mi West 5.8 mph - N/A   Mostly Cloudy
6:53 AM 30.9 °F 25.2 °F 27.0 °F 85% 30.03 in 10.0 mi NW 5.8 mph - N/A   Overcast
7:53 AM 33.1 °F 27.7 °F 28.0 °F 82% 30.04 in 10.0 mi WNW 5.8 mph - N/A   Overcast
8:53 AM 34.0 °F 31.0 °F 28.9 °F 82% 30.07 in 10.0 mi West 3.5 mph - N/A   Overcast
9:53 AM 35.1 °F 31.0 °F 30.0 °F 82% 30.08 in 10.0 mi West 4.6 mph - N/A   Overcast
10:53 AM 35.1 °F 31.0 °F 30.0 °F 82% 30.09 in 10.0 mi West 4.6 mph - N/A   Overcast
11:53 AM 37.9 °F 33.5 °F 28.9 °F 70% 30.09 in 10.0 mi West 5.8 mph - N/A   Overcast
12:26 PM 37.4 °F 33.8 °F 30.2 °F 75% 30.11 in 10.0 mi WNW 4.6 mph - N/A   Overcast
12:53 PM 37.9 °F - 30.9 °F 76% 30.11 in 10.0 mi Calm Calm - N/A   Overcast
1:21 PM 37.4 °F - 32.0 °F 81% 30.11 in 10.0 mi Calm Calm - 0.00 in Rain Light Rain
1:53 PM 37.9 °F - 30.9 °F 76% 30.09 in 10.0 mi Calm Calm - 0.00 in   Overcast
2:53 PM 39.9 °F - 32.0 °F 73% 30.09 in 10.0 mi Calm Calm - N/A   Overcast
3:30 PM 39.2 °F - 33.8 °F 81% 30.12 in 10.0 mi Calm Calm - N/A   Overcast
3:53 PM 39.0 °F 35.7 °F 34.0 °F 82% 30.09 in 10.0 mi WNW 4.6 mph - N/A   Overcast
4:53 PM 39.0 °F - 33.1 °F 79% 30.11 in 10.0 mi Calm Calm - 0.00 in   Overcast
5:53 PM 39.0 °F - 35.1 °F 86% 30.12 in 10.0 mi Calm Calm - N/A   Overcast
6:53 PM 37.9 °F 35.5 °F 35.1 °F 89% 30.14 in 10.0 mi WSW 3.5 mph - N/A   Overcast
7:53 PM 37.9 °F 33.5 °F 34.0 °F 86% 30.13 in 10.0 mi West 5.8 mph - N/A   Overcast
8:06 PM 37.4 °F 32.8 °F 33.8 °F 87% 30.16 in 10.0 mi West 5.8 mph - N/A   Overcast
8:18 PM 37.4 °F 32.8 °F 33.8 °F 87% 30.16 in 10.0 mi West 5.8 mph - N/A   Overcast
8:53 PM 37.0 °F 33.3 °F 34.0 °F 89% 30.14 in 10.0 mi NNE 4.6 mph - N/A   Overcast
9:53 PM 37.0 °F - 34.0 °F 89% 30.15 in 10.0 mi Calm Calm - N/A   Overcast
10:53 PM 37.9 °F 32.7 °F 34.0 °F 86% 30.13 in 10.0 mi West 6.9 mph - N/A   Overcast
11:53 PM 37.9 °F 33.5 °F 34.0 °F 86% 30.12 in 10.0 mi WNW 5.8 mph - N/A   Overcast